Time,TemperatureF,DewpointF,PressureIn,WindDirection,WindDirectionDegrees,WindSpeedMPH,WindSpeedGustMPH,Humidity,HourlyPrecipIn,Conditions,Clouds,dailyrainin,SoftwareType,DateUTC
2013-06-30 06:05:00,72.5,63.3,30.04,NNW,338,19.0,29.0,73,0.00,,,0.00,Weather View 32 v70,2013-06-30 16:05:00,
2013-06-30 06:10:00,72.4,63.6,30.04,North,11,18.0,29.0,74,0.00,,,0.00,Weather View 32 v70,2013-06-30 16:10:00,
2013-06-30 06:15:00,72.3,63.9,30.03,North,355,19.0,29.0,75,0.00,,,0.00,Weather View 32 v70,2013-06-30 16:15:00,
2013-06-30 06:20:00,72.2,64.2,30.04,North,349,19.0,29.0,76,0.00,,,0.00,Weather View 32 v70,2013-06-30 16:20:00,
2013-06-30 06:29:00,72.2,64.2,30.04,North,356,17.0,29.0,76,0.00,,,0.00,Weather View 32 v70,2013-06-30 16:29:00,
2013-06-30 06:30:00,72.3,63.9,30.04,NNE,19,18.0,29.0,75,0.00,,,0.00,Weather View 32 v70,2013-06-30 16:30:00,
2013-06-30 06:35:00,72.3,64.3,30.05,NNE,14,10.0,29.0,76,0.00,,,0.00,Weather View 32 v70,2013-06-30 16:35:00,
2013-06-30 06:40:00,72.2,64.6,30.05,North,355,14.0,29.0,77,0.00,,,0.00,Weather View 32 v70,2013-06-30 16:40:00,
2013-06-30 06:45:00,72.1,64.5,30.05,North,11,11.0,29.0,77,0.00,,,0.00,Weather View 32 v70,2013-06-30 16:45:00,
2013-06-30 06:50:00,72.2,64.9,30.05,NNE,29,6.0,29.0,78,0.00,,,0.00,Weather View 32 v70,2013-06-30 16:50:00,
2013-06-30 06:55:00,72.2,64.9,30.05,NNW,330,16.0,27.0,78,0.00,,,0.00,Weather View 32 v70,2013-06-30 16:55:00,
2013-06-30 07:00:00,72.4,65.1,30.05,WNW,300,9.0,27.0,78,0.00,,,0.00,Weather View 32 v70,2013-06-30 17:00:00,
2013-06-30 07:05:00,72.3,65.4,30.05,North,349,26.0,27.0,79,0.00,,,0.00,Weather View 32 v70,2013-06-30 17:05:00,
2013-06-30 07:10:00,72.0,65.8,30.05,NNE,20,16.0,28.0,81,0.00,,,0.00,Weather View 32 v70,2013-06-30 17:10:00,
2013-06-30 07:15:00,72.2,65.7,30.05,NW,325,18.0,28.0,80,0.00,,,0.00,Weather View 32 v70,2013-06-30 17:15:00,
2013-06-30 07:20:00,72.1,65.6,30.05,North,8,17.0,28.0,80,0.00,,,0.00,Weather View 32 v70,2013-06-30 17:20:00,
2013-06-30 07:25:00,72.2,66.0,30.05,North,10,23.0,28.0,81,0.00,,,0.00,Weather View 32 v70,2013-06-30 17:25:00,
2013-06-30 07:30:00,72.2,66.4,30.05,NNW,348,19.0,29.0,82,0.00,,,0.00,Weather View 32 v70,2013-06-30 17:30:00,
2013-06-30 07:35:00,72.5,67.0,30.05,North,4,26.0,29.0,83,0.00,,,0.00,Weather View 32 v70,2013-06-30 17:35:00,
2013-06-30 07:40:00,72.4,66.6,30.05,North,357,26.0,29.0,82,0.00,,,0.00,Weather View 32 v70,2013-06-30 17:40:00,
2013-06-30 07:45:00,72.5,66.3,30.05,North,351,16.0,29.0,81,0.00,,,0.00,Weather View 32 v70,2013-06-30 17:45:00,
2013-06-30 07:50:00,72.9,66.3,30.05,NNE,12,24.0,29.0,80,0.00,,,0.00,Weather View 32 v70,2013-06-30 17:50:00,
2013-06-30 07:55:00,72.8,65.9,30.04,North,5,20.0,32.0,79,0.00,,,0.00,Weather View 32 v70,2013-06-30 17:55:00,
2013-06-30 08:01:00,73.2,65.5,30.04,North,355,24.0,32.0,77,0.00,,,0.00,Weather View 32 v70,2013-06-30 18:01:00,
2013-06-30 08:06:00,73.3,65.6,30.05,North,6,16.0,32.0,77,0.00,,,0.00,Weather View 32 v70,2013-06-30 18:06:00,
2013-06-30 08:10:00,73.5,65.4,30.04,North,10,22.0,32.0,76,0.00,,,0.00,Weather View 32 v70,2013-06-30 18:10:00,
2013-06-30 08:12:00,73.4,65.7,30.05,NNE,18,23.0,32.0,77,0.00,,,0.00,Weather View 32 v70,2013-06-30 18:12:00,
2013-06-30 08:15:00,73.2,64.4,30.03,NNE,12,16.0,32.0,74,0.00,,,0.00,Weather View 32 v70,2013-06-30 18:15:00,
2013-06-30 08:17:00,73.2,64.4,30.05,NNE,25,18.0,32.0,74,0.00,,,0.00,Weather View 32 v70,2013-06-30 18:17:00,
2013-06-30 08:20:00,73.5,65.1,30.04,NNE,20,22.0,32.0,75,0.00,,,0.00,Weather View 32 v70,2013-06-30 18:20:00,
2013-06-30 08:23:00,73.9,65.1,30.05,NNE,14,14.0,32.0,74,0.00,,,0.00,Weather View 32 v70,2013-06-30 18:23:00,
2013-06-30 08:25:00,74.2,65.0,30.05,NNE,32,9.0,32.0,73,0.00,,,0.00,Weather View 32 v70,2013-06-30 18:25:00,
2013-06-30 08:28:00,73.8,65.0,30.04,North,6,18.0,32.0,74,0.00,,,0.00,Weather View 32 v70,2013-06-30 18:28:00,
2013-06-30 08:30:00,73.9,65.1,30.04,NNE,22,18.0,32.0,74,0.00,,,0.00,Weather View 32 v70,2013-06-30 18:30:00,
2013-06-30 08:33:00,73.7,65.3,30.05,North,1,19.0,32.0,75,0.00,,,0.00,Weather View 32 v70,2013-06-30 18:33:00,
2013-06-30 08:35:00,73.8,65.3,30.05,NW,320,14.0,32.0,75,0.00,,,0.00,Weather View 32 v70,2013-06-30 18:35:00,
2013-06-30 08:39:00,73.5,65.8,30.05,NNE,22,25.0,32.0,77,0.00,,,0.00,Weather View 32 v70,2013-06-30 18:39:00,
2013-06-30 08:40:00,73.4,65.7,30.04,North,6,28.0,32.0,77,0.00,,,0.00,Weather View 32 v70,2013-06-30 18:40:00,
2013-06-30 08:44:00,72.9,65.6,30.05,North,353,22.0,34.0,78,0.00,,,0.00,Weather View 32 v70,2013-06-30 18:44:00,
2013-06-30 08:45:00,73.0,65.7,30.05,North,10,21.0,34.0,78,0.00,,,0.00,Weather View 32 v70,2013-06-30 18:45:00,
2013-06-30 08:50:00,73.2,65.9,30.05,North,2,19.0,34.0,78,0.00,,,0.00,Weather View 32 v70,2013-06-30 18:50:00,
2013-06-30 08:56:00,73.5,65.8,30.05,NNE,26,19.0,34.0,77,0.00,,,0.00,Weather View 32 v70,2013-06-30 18:56:00,
2013-06-30 09:01:00,73.2,65.5,30.05,North,350,25.0,34.0,77,0.00,,,0.00,Weather View 32 v70,2013-06-30 19:01:00,
2013-06-30 09:06:00,73.6,66.3,30.04,NNW,348,19.0,34.0,78,0.00,,,0.00,Weather View 32 v70,2013-06-30 19:06:00,
2013-06-30 09:10:00,73.4,66.1,30.05,North,1,25.0,34.0,78,0.00,,,0.00,Weather View 32 v70,2013-06-30 19:10:00,
2013-06-30 09:11:00,73.4,66.1,30.05,North,7,17.0,34.0,78,0.00,,,0.00,Weather View 32 v70,2013-06-30 19:11:00,
2013-06-30 09:17:00,73.3,65.6,30.04,NNE,12,22.0,34.0,77,0.00,,,0.00,Weather View 32 v70,2013-06-30 19:17:00,
2013-06-30 09:22:00,73.5,65.4,30.04,NNW,329,23.0,34.0,76,0.00,,,0.00,Weather View 32 v70,2013-06-30 19:22:00,
2013-06-30 09:28:00,73.5,65.4,30.05,North,355,27.0,34.0,76,0.00,,,0.00,Weather View 32 v70,2013-06-30 19:28:00,
2013-06-30 09:30:00,73.7,65.6,30.04,North,349,24.0,34.0,76,0.00,,,0.00,Weather View 32 v70,2013-06-30 19:30:00,
2013-06-30 09:35:00,74.2,65.3,30.05,NNE,14,25.0,34.0,74,0.00,,,0.00,Weather View 32 v70,2013-06-30 19:35:00,
2013-06-30 09:40:00,74.4,65.1,30.05,NNE,20,23.0,34.0,73,0.00,,,0.00,Weather View 32 v70,2013-06-30 19:40:00,
2013-06-30 09:45:00,74.6,64.9,30.04,North,10,20.0,33.0,72,0.00,,,0.00,Weather View 32 v70,2013-06-30 19:45:00,
2013-06-30 09:52:00,73.9,64.7,30.04,North,354,27.0,33.0,73,0.00,,,0.00,Weather View 32 v70,2013-06-30 19:52:00,
2013-06-30 09:57:00,74.3,65.1,30.05,NNE,16,19.0,34.0,73,0.00,,,0.00,Weather View 32 v70,2013-06-30 19:57:00,
2013-06-30 10:03:00,74.6,64.5,30.05,NNE,16,18.0,34.0,71,0.00,,,0.00,Weather View 32 v70,2013-06-30 20:03:00,
2013-06-30 10:08:00,75.0,64.5,30.04,North,360,26.0,34.0,70,0.00,,,0.00,Weather View 32 v70,2013-06-30 20:08:00,
2013-06-30 10:10:00,74.7,64.6,30.04,NNW,343,17.0,34.0,71,0.00,,,0.00,Weather View 32 v70,2013-06-30 20:10:00,
2013-06-30 10:13:00,74.9,65.2,30.04,North,352,25.0,34.0,72,0.00,,,0.00,Weather View 32 v70,2013-06-30 20:13:00,
2013-06-30 10:15:00,74.7,65.4,30.04,NNE,12,28.0,34.0,73,0.00,,,0.00,Weather View 32 v70,2013-06-30 20:15:00,
2013-06-30 10:19:00,73.9,64.7,30.03,NNE,24,26.0,34.0,73,0.00,,,0.00,Weather View 32 v70,2013-06-30 20:19:00,
2013-06-30 10:20:00,73.9,65.4,30.03,North,357,30.0,34.0,75,0.00,,,0.00,Weather View 32 v70,2013-06-30 20:20:00,
2013-06-30 10:25:00,74.2,65.7,30.05,NNE,12,21.0,34.0,75,0.00,,,0.00,Weather View 32 v70,2013-06-30 20:25:00,
2013-06-30 10:30:00,74.4,65.5,30.04,NNE,22,20.0,34.0,74,0.00,,,0.00,Weather View 32 v70,2013-06-30 20:30:00,
2013-06-30 10:31:00,74.4,65.9,30.04,North,10,30.0,34.0,75,0.00,,,0.00,Weather View 32 v70,2013-06-30 20:31:00,
2013-06-30 10:35:00,74.2,65.3,30.04,North,352,24.0,34.0,74,0.00,,,0.00,Weather View 32 v70,2013-06-30 20:35:00,
2013-06-30 10:37:00,74.3,65.4,30.04,North,353,20.0,34.0,74,0.00,,,0.00,Weather View 32 v70,2013-06-30 20:37:00,
2013-06-30 10:43:00,74.2,65.3,30.04,NNE,32,25.0,35.0,74,0.00,,,0.00,Weather View 32 v70,2013-06-30 20:43:00,
2013-06-30 10:49:00,73.7,65.6,30.04,North,353,26.0,35.0,76,0.00,,,0.00,Weather View 32 v70,2013-06-30 20:49:00,
2013-06-30 10:55:00,73.8,66.1,30.04,NNE,16,29.0,35.0,77,0.00,,,0.00,Weather View 32 v70,2013-06-30 20:55:00,
2013-06-30 11:01:00,74.0,65.9,30.04,North,4,29.0,35.0,76,0.00,,,0.00,Weather View 32 v70,2013-06-30 21:01:00,
2013-06-30 11:07:00,74.1,66.0,30.04,North,1,30.0,35.0,76,0.00,,,0.00,Weather View 32 v70,2013-06-30 21:07:00,
2013-06-30 11:10:00,73.6,65.9,30.04,NNW,328,27.0,35.0,77,0.00,,,0.00,Weather View 32 v70,2013-06-30 21:10:00,
2013-06-30 11:13:00,73.7,66.4,30.04,NNW,334,21.0,35.0,78,0.00,,,0.00,Weather View 32 v70,2013-06-30 21:13:00,
2013-06-30 11:18:00,73.5,66.2,30.04,NNE,28,25.0,35.0,78,0.00,,,0.00,Weather View 32 v70,2013-06-30 21:18:00,
2013-06-30 11:24:00,74.2,66.9,30.04,North,359,20.0,35.0,78,0.00,,,0.00,Weather View 32 v70,2013-06-30 21:24:00,
2013-06-30 11:29:00,73.6,66.3,30.04,NNE,28,27.0,35.0,78,0.00,,,0.00,Weather View 32 v70,2013-06-30 21:29:00,
2013-06-30 11:36:00,73.4,66.5,30.03,North,5,30.0,35.0,79,0.00,,,0.00,Weather View 32 v70,2013-06-30 21:36:00,
2013-06-30 11:42:00,73.3,66.0,30.03,North,7,30.0,36.0,78,0.00,,,0.00,Weather View 32 v70,2013-06-30 21:42:00,
2013-06-30 11:47:00,74.0,66.7,30.03,NNE,15,27.0,36.0,78,0.00,,,0.00,Weather View 32 v70,2013-06-30 21:47:00,
2013-06-30 11:52:00,73.5,66.2,30.03,NNE,20,26.0,36.0,78,0.00,,,0.00,Weather View 32 v70,2013-06-30 21:52:00,
2013-06-30 11:57:00,73.4,66.5,30.02,North,355,29.0,36.0,79,0.00,,,0.00,Weather View 32 v70,2013-06-30 21:57:00,
2013-06-30 12:02:00,73.1,66.5,30.02,NNE,30,23.0,37.0,80,0.00,,,0.00,Weather View 32 v70,2013-06-30 22:02:00,
2013-06-30 12:07:00,73.7,66.4,30.02,NNE,14,32.0,37.0,78,0.00,,,0.00,Weather View 32 v70,2013-06-30 22:07:00,
2013-06-30 12:10:00,73.5,66.2,30.03,NNW,346,27.0,37.0,78,0.00,,,0.00,Weather View 32 v70,2013-06-30 22:10:00,
2013-06-30 12:12:00,73.5,66.2,30.02,North,8,30.0,37.0,78,0.00,,,0.00,Weather View 32 v70,2013-06-30 22:12:00,
2013-06-30 12:18:00,73.8,66.5,30.02,North,8,23.0,37.0,78,0.00,,,0.00,Weather View 32 v70,2013-06-30 22:18:00,
2013-06-30 12:24:00,73.5,66.9,30.03,North,357,18.0,37.0,80,0.00,,,0.00,Weather View 32 v70,2013-06-30 22:24:00,
2013-06-30 12:30:00,73.7,67.1,30.03,North,8,28.0,37.0,80,0.00,,,0.00,Weather View 32 v70,2013-06-30 22:30:00,
2013-06-30 12:35:00,73.7,67.5,30.02,North,351,27.0,37.0,81,0.00,,,0.00,Weather View 32 v70,2013-06-30 22:35:00,
2013-06-30 12:36:00,73.6,67.0,30.02,NNE,32,29.0,37.0,80,0.00,,,0.00,Weather View 32 v70,2013-06-30 22:36:00,
2013-06-30 12:40:00,73.3,67.1,30.02,North,355,20.0,37.0,81,0.00,,,0.00,Weather View 32 v70,2013-06-30 22:40:00,
2013-06-30 12:43:00,73.7,67.1,30.02,NNE,20,25.0,37.0,80,0.00,,,0.00,Weather View 32 v70,2013-06-30 22:43:00,
2013-06-30 12:49:00,73.8,66.5,30.02,NNE,21,24.0,37.0,78,0.00,,,0.00,Weather View 32 v70,2013-06-30 22:49:00,
2013-06-30 12:55:00,73.1,65.8,30.01,North,4,29.0,37.0,78,0.00,,,0.00,Weather View 32 v70,2013-06-30 22:55:00,
2013-06-30 13:02:00,74.6,66.1,30.02,North,1,19.0,35.0,75,0.00,,,0.00,Weather View 32 v70,2013-06-30 23:02:00,
2013-06-30 13:10:00,74.0,64.0,30.01,North,5,30.0,36.0,71,0.00,,,0.00,Weather View 32 v70,2013-06-30 23:10:00,
2013-06-30 13:15:00,73.7,64.5,30.00,NNE,12,27.0,36.0,73,0.00,,,0.00,Weather View 32 v70,2013-06-30 23:15:00,
2013-06-30 13:20:00,74.0,65.5,30.01,NNE,18,26.0,36.0,75,0.00,,,0.00,Weather View 32 v70,2013-06-30 23:20:00,
2013-06-30 13:21:00,74.0,65.5,30.02,NNE,18,25.0,36.0,75,0.00,,,0.00,Weather View 32 v70,2013-06-30 23:21:00,
2013-06-30 13:26:00,74.1,64.5,29.99,NNE,29,18.0,36.0,72,0.00,,,0.00,Weather View 32 v70,2013-06-30 23:26:00,
2013-06-30 13:31:00,73.9,64.3,30.02,North,349,23.0,36.0,72,0.00,,,0.00,Weather View 32 v70,2013-06-30 23:31:00,
2013-06-30 13:36:00,74.3,65.8,30.02,North,10,19.0,36.0,75,0.00,,,0.00,Weather View 32 v70,2013-06-30 23:36:00,
2013-06-30 13:42:00,74.2,65.3,30.02,North,359,31.0,36.0,74,0.00,,,0.00,Weather View 32 v70,2013-06-30 23:42:00,
2013-06-30 13:45:00,74.0,65.9,30.01,NNE,19,23.0,36.0,76,0.00,,,0.00,Weather View 32 v70,2013-06-30 23:45:00,
2013-06-30 13:48:00,73.6,65.5,30.03,North,7,16.0,36.0,76,0.00,,,0.00,Weather View 32 v70,2013-06-30 23:48:00,
2013-06-30 13:53:00,73.8,65.3,30.02,North,3,30.0,36.0,75,0.00,,,0.00,Weather View 32 v70,2013-06-30 23:53:00,
2013-06-30 14:00:00,73.6,64.4,30.02,North,360,23.0,36.0,73,0.00,,,0.00,Weather View 32 v70,2013-07-01 00:00:00,
2013-06-30 14:10:00,73.8,64.2,30.02,NNW,342,30.0,36.0,72,0.00,,,0.00,Weather View 32 v70,2013-07-01 00:10:00,
2013-06-30 14:24:00,74.3,64.3,30.01,North,8,25.0,35.0,71,0.00,,,0.00,Weather View 32 v70,2013-07-01 00:24:00,
2013-06-30 14:30:00,74.4,63.9,30.02,NNE,20,16.0,34.0,70,0.00,,,0.00,Weather View 32 v70,2013-07-01 00:30:00,
2013-06-30 14:36:00,74.4,63.5,30.02,North,357,19.0,34.0,69,0.00,,,0.00,Weather View 32 v70,2013-07-01 00:36:00,
2013-06-30 14:41:00,74.5,65.2,30.00,North,4,27.0,34.0,73,0.00,,,0.00,Weather View 32 v70,2013-07-01 00:41:00,
2013-06-30 14:46:00,74.4,65.9,30.01,North,6,24.0,34.0,75,0.00,,,0.00,Weather View 32 v70,2013-07-01 00:46:00,
2013-06-30 14:54:00,74.0,65.2,30.00,NNE,12,18.0,35.0,74,0.00,,,0.00,Weather View 32 v70,2013-07-01 00:54:00,
2013-06-30 14:59:00,73.7,65.6,30.00,North,355,20.0,35.0,76,0.00,,,0.00,Weather View 32 v70,2013-07-01 00:59:00,
2013-06-30 15:04:00,73.9,65.8,30.00,North,349,24.0,35.0,76,0.00,,,0.00,Weather View 32 v70,2013-07-01 01:04:00,
2013-06-30 15:11:00,73.9,65.8,30.00,North,7,25.0,35.0,76,0.00,,,0.00,Weather View 32 v70,2013-07-01 01:11:00,
2013-06-30 15:16:00,73.6,65.5,29.99,North,353,22.0,35.0,76,0.00,,,0.00,Weather View 32 v70,2013-07-01 01:16:00,
2013-06-30 15:21:00,73.7,65.3,29.99,NNE,14,23.0,35.0,75,0.00,,,0.00,Weather View 32 v70,2013-07-01 01:21:00,
2013-06-30 15:27:00,73.7,65.6,29.99,North,7,24.0,35.0,76,0.00,,,0.00,Weather View 32 v70,2013-07-01 01:27:00,
2013-06-30 15:32:00,73.9,65.1,30.00,NNE,14,20.0,35.0,74,0.00,,,0.00,Weather View 32 v70,2013-07-01 01:32:00,
2013-06-30 15:38:00,74.3,65.4,29.99,NNE,23,25.0,35.0,74,0.00,,,0.00,Weather View 32 v70,2013-07-01 01:38:00,
2013-06-30 15:44:00,74.4,65.1,29.99,North,360,26.0,35.0,73,0.00,,,0.00,Weather View 32 v70,2013-07-01 01:44:00,
2013-06-30 15:51:00,74.5,65.2,29.99,North,356,22.0,35.0,73,0.00,,,0.00,Weather View 32 v70,2013-07-01 01:51:00,
2013-06-30 15:56:00,74.1,64.5,29.98,NNE,14,24.0,34.0,72,0.00,,,0.00,Weather View 32 v70,2013-07-01 01:56:00,
2013-06-30 16:02:00,74.4,64.7,29.99,NNW,345,12.0,34.0,72,0.00,,,0.00,Weather View 32 v70,2013-07-01 02:02:00,
2013-06-30 16:08:00,74.3,63.8,29.98,NNE,14,31.0,34.0,70,0.00,,,0.00,Weather View 32 v70,2013-07-01 02:08:00,
2013-06-30 16:13:00,74.2,63.7,29.98,North,5,21.0,34.0,70,0.00,,,0.00,Weather View 32 v70,2013-07-01 02:13:00,
2013-06-30 16:20:00,74.5,63.6,29.98,North,4,14.0,34.0,69,0.00,,,0.00,Weather View 32 v70,2013-07-01 02:20:00,
2013-06-30 16:25:00,74.6,63.7,29.98,North,354,14.0,34.0,69,0.00,,,0.00,Weather View 32 v70,2013-07-01 02:25:00,
2013-06-30 16:27:00,74.6,62.9,29.98,NNE,18,18.0,34.0,67,0.00,,,0.00,Weather View 32 v70,2013-07-01 02:27:00,
2013-06-30 16:33:00,74.8,63.5,29.98,North,349,25.0,34.0,68,0.00,,,0.00,Weather View 32 v70,2013-07-01 02:33:00,
2013-06-30 16:39:00,74.5,63.2,29.98,NW,318,15.0,34.0,68,0.00,,,0.00,Weather View 32 v70,2013-07-01 02:39:00,
2013-06-30 16:45:00,74.2,62.1,29.96,NNW,346,25.0,34.0,66,0.00,,,0.00,Weather View 32 v70,2013-07-01 02:45:00,
2013-06-30 16:50:00,74.6,62.0,29.98,NNW,337,13.0,34.0,65,0.00,,,0.00,Weather View 32 v70,2013-07-01 02:50:00,
2013-06-30 16:52:00,74.6,62.0,29.98,NNE,12,19.0,34.0,65,0.00,,,0.00,Weather View 32 v70,2013-07-01 02:52:00,
2013-06-30 16:58:00,74.6,62.0,29.98,NNE,13,15.0,34.0,65,0.00,,,0.00,Weather View 32 v70,2013-07-01 02:58:00,
2013-06-30 17:04:00,74.8,61.8,29.98,North,359,22.0,34.0,64,0.00,,,0.00,Weather View 32 v70,2013-07-01 03:04:00,
2013-06-30 17:10:00,74.7,61.7,29.99,NNE,18,15.0,34.0,64,0.00,,,0.00,Weather View 32 v70,2013-07-01 03:10:00,
2013-06-30 17:15:00,74.6,62.4,29.99,NNW,330,27.0,32.0,66,0.00,,,0.00,Weather View 32 v70,2013-07-01 03:15:00,
2013-06-30 17:16:00,74.6,62.0,29.99,North,8,17.0,32.0,65,0.00,,,0.00,Weather View 32 v70,2013-07-01 03:16:00,
2013-06-30 17:22:00,74.3,61.7,29.99,North,353,17.0,32.0,65,0.00,,,0.00,Weather View 32 v70,2013-07-01 03:22:00,
2013-06-30 17:29:00,74.0,62.3,29.99,NNE,22,18.0,32.0,67,0.00,,,0.00,Weather View 32 v70,2013-07-01 03:29:00,
2013-06-30 17:34:00,73.7,61.6,29.99,NNE,28,15.0,32.0,66,0.00,,,0.00,Weather View 32 v70,2013-07-01 03:34:00,
2013-06-30 17:39:00,73.5,61.8,29.99,NNW,341,17.0,32.0,67,0.00,,,0.00,Weather View 32 v70,2013-07-01 03:39:00,
2013-06-30 17:45:00,73.2,62.4,30.00,NNW,329,19.0,32.0,69,0.00,,,0.00,Weather View 32 v70,2013-07-01 03:45:00,
2013-06-30 17:50:00,72.8,63.2,30.00,NNW,347,20.0,33.0,72,0.00,,,0.00,Weather View 32 v70,2013-07-01 03:50:00,
2013-06-30 17:55:00,72.7,63.1,29.99,North,357,17.0,33.0,72,0.00,,,0.00,Weather View 32 v70,2013-07-01 03:55:00,
2013-06-30 18:00:00,72.6,63.4,30.00,NNW,345,25.0,34.0,73,0.00,,,0.00,Weather View 32 v70,2013-07-01 04:00:00,
2013-06-30 18:01:00,72.6,63.4,30.00,North,353,19.0,34.0,73,0.00,,,0.00,Weather View 32 v70,2013-07-01 04:01:00,
2013-06-30 18:06:00,72.5,63.7,30.01,WNW,287,17.0,34.0,74,0.00,,,0.00,Weather View 32 v70,2013-07-01 04:06:00,
2013-06-30 18:11:00,72.6,63.0,30.00,North,359,10.0,34.0,72,0.00,,,0.00,Weather View 32 v70,2013-07-01 04:11:00,
2013-06-30 18:16:00,72.6,63.0,30.01,NW,305,22.0,34.0,72,0.00,,,0.00,Weather View 32 v70,2013-07-01 04:16:00,
2013-06-30 18:21:00,72.5,63.7,30.00,WNW,303,18.0,34.0,74,0.00,,,0.00,Weather View 32 v70,2013-07-01 04:21:00,
2013-06-30 18:26:00,72.3,63.9,30.01,NW,312,21.0,35.0,75,0.00,,,0.00,Weather View 32 v70,2013-07-01 04:26:00,
2013-06-30 18:31:00,72.3,63.9,30.01,NW,325,15.0,35.0,75,0.00,,,0.00,Weather View 32 v70,2013-07-01 04:31:00,
2013-06-30 18:36:00,72.3,63.9,30.00,NW,326,18.0,35.0,75,0.00,,,0.00,Weather View 32 v70,2013-07-01 04:36:00,
2013-06-30 18:41:00,72.2,63.8,30.01,NNW,333,13.0,35.0,75,0.00,,,0.00,Weather View 32 v70,2013-07-01 04:41:00,
2013-06-30 18:46:00,72.3,63.9,30.00,North,3,24.0,35.0,75,0.00,,,0.00,Weather View 32 v70,2013-07-01 04:46:00,
2013-06-30 18:51:00,72.3,64.7,29.99,NNW,343,26.0,37.0,77,0.00,,,0.00,Weather View 32 v70,2013-07-01 04:51:00,
2013-06-30 18:56:00,72.1,64.5,30.01,North,350,27.0,37.0,77,0.00,,,0.00,Weather View 32 v70,2013-07-01 04:56:00,
2013-06-30 19:01:00,72.0,64.7,30.01,NNW,334,22.0,37.0,78,0.00,,,0.00,Weather View 32 v70,2013-07-01 05:01:00,
2013-06-30 19:06:00,71.9,65.0,30.01,NNW,333,23.0,37.0,79,0.00,,,0.00,Weather View 32 v70,2013-07-01 05:06:00,
2013-06-30 19:11:00,71.8,64.9,30.00,North,357,30.0,37.0,79,0.00,,,0.00,Weather View 32 v70,2013-07-01 05:11:00,
2013-06-30 19:16:00,71.8,64.9,30.02,North,357,25.0,37.0,79,0.00,,,0.00,Weather View 32 v70,2013-07-01 05:16:00,
2013-06-30 19:21:00,71.7,64.8,30.02,North,353,19.0,37.0,79,0.00,,,0.00,Weather View 32 v70,2013-07-01 05:21:00,
2013-06-30 19:26:00,71.8,64.9,30.03,North,6,22.0,37.0,79,0.00,,,0.00,Weather View 32 v70,2013-07-01 05:26:00,
2013-06-30 19:31:00,71.9,64.6,30.03,North,355,31.0,37.0,78,0.00,,,0.00,Weather View 32 v70,2013-07-01 05:31:00,
2013-06-30 19:36:00,71.9,64.6,30.03,North,349,28.0,37.0,78,0.00,,,0.00,Weather View 32 v70,2013-07-01 05:36:00,
2013-06-30 19:41:00,71.9,64.6,30.03,North,357,24.0,37.0,78,0.00,,,0.00,Weather View 32 v70,2013-07-01 05:41:00,
2013-06-30 19:46:00,71.9,64.6,30.04,North,359,13.0,37.0,78,0.00,,,0.00,Weather View 32 v70,2013-07-01 05:46:00,
2013-06-30 19:51:00,71.8,64.5,30.04,NNW,329,19.0,36.0,78,0.00,,,0.00,Weather View 32 v70,2013-07-01 05:51:00,
2013-06-30 19:56:00,71.8,64.5,30.04,West,272,11.0,36.0,78,0.00,,,0.00,Weather View 32 v70,2013-07-01 05:56:00,
2013-06-30 20:01:00,71.8,64.9,30.04,NW,315,10.0,36.0,79,0.00,,,0.00,Weather View 32 v70,2013-07-01 06:01:00,
2013-06-30 20:06:00,71.8,64.9,30.03,NNE,13,13.0,36.0,79,0.00,,,0.00,Weather View 32 v70,2013-07-01 06:06:00,
2013-06-30 20:11:00,71.7,64.8,30.04,NW,317,14.0,36.0,79,0.00,,,0.00,Weather View 32 v70,2013-07-01 06:11:00,
2013-06-30 20:16:00,71.7,64.8,30.03,NW,320,23.0,36.0,79,0.00,,,0.00,Weather View 32 v70,2013-07-01 06:16:00,
2013-06-30 20:21:00,71.8,64.5,30.04,WNW,282,11.0,36.0,78,0.00,,,0.00,Weather View 32 v70,2013-07-01 06:21:00,
2013-06-30 20:26:00,71.9,65.0,30.04,North,360,11.0,36.0,79,0.00,,,0.00,Weather View 32 v70,2013-07-01 06:26:00,
2013-06-30 20:31:00,71.7,64.8,30.04,NNW,333,17.0,33.0,79,0.00,,,0.00,Weather View 32 v70,2013-07-01 06:31:00,
2013-06-30 20:36:00,71.7,64.8,30.03,NW,312,13.0,32.0,79,0.00,,,0.00,Weather View 32 v70,2013-07-01 06:36:00,
2013-06-30 20:41:00,71.8,64.5,30.03,NW,323,16.0,32.0,78,0.00,,,0.00,Weather View 32 v70,2013-07-01 06:41:00,
2013-06-30 20:46:00,71.9,64.6,30.04,NNW,335,26.0,32.0,78,0.00,,,0.00,Weather View 32 v70,2013-07-01 06:46:00,
2013-06-30 20:51:00,71.9,64.6,30.04,NNW,343,15.0,32.0,78,0.00,,,0.00,Weather View 32 v70,2013-07-01 06:51:00,
2013-06-30 20:56:00,71.9,65.0,30.03,NNW,333,16.0,32.0,79,0.00,,,0.00,Weather View 32 v70,2013-07-01 06:56:00,
2013-06-30 21:01:00,71.8,64.9,30.04,North,351,18.0,32.0,79,0.00,,,0.00,Weather View 32 v70,2013-07-01 07:01:00,
2013-06-30 21:06:00,71.6,65.1,30.04,North,356,20.0,32.0,80,0.00,,,0.00,Weather View 32 v70,2013-07-01 07:06:00,
2013-06-30 21:11:00,71.6,65.4,30.04,NNW,331,13.0,32.0,81,0.00,,,0.00,Weather View 32 v70,2013-07-01 07:11:00,
2013-06-30 21:17:00,71.6,65.1,30.04,NW,326,14.0,32.0,80,0.00,,,0.00,Weather View 32 v70,2013-07-01 07:17:00,
2013-06-30 21:22:00,71.7,65.5,30.03,NNW,347,26.0,32.0,81,0.00,,,0.00,Weather View 32 v70,2013-07-01 07:22:00,
2013-06-30 21:27:00,71.5,65.7,30.04,NNW,340,21.0,32.0,82,0.00,,,0.00,Weather View 32 v70,2013-07-01 07:27:00,
2013-06-30 21:32:00,71.4,65.9,30.04,North,1,18.0,32.0,83,0.00,,,0.00,Weather View 32 v70,2013-07-01 07:32:00,
2013-06-30 21:37:00,71.3,65.8,30.04,North,357,21.0,32.0,83,0.00,,,0.00,Weather View 32 v70,2013-07-01 07:37:00,
2013-06-30 21:42:00,71.3,66.2,30.04,North,2,19.0,32.0,84,0.00,,,0.00,Weather View 32 v70,2013-07-01 07:42:00,
2013-06-30 21:47:00,71.3,66.5,30.03,NNW,345,18.0,31.0,85,0.00,,,0.00,Weather View 32 v70,2013-07-01 07:47:00,
2013-06-30 21:52:00,71.2,66.4,30.03,North,360,17.0,31.0,85,0.00,,,0.00,Weather View 32 v70,2013-07-01 07:52:00,
2013-06-30 21:57:00,71.1,66.7,30.04,NNW,339,23.0,31.0,86,0.00,,,0.00,Weather View 32 v70,2013-07-01 07:57:00,
2013-06-30 22:02:00,71.0,66.6,30.04,North,358,25.0,31.0,86,0.00,,,0.00,Weather View 32 v70,2013-07-01 08:02:00,
2013-06-30 22:07:00,71.1,66.7,30.04,North,359,26.0,34.0,86,0.00,,,0.00,Weather View 32 v70,2013-07-01 08:07:00,
2013-06-30 22:12:00,71.2,66.8,30.04,NNE,18,24.0,34.0,86,0.00,,,0.00,Weather View 32 v70,2013-07-01 08:12:00,
2013-06-30 22:17:00,71.2,65.8,30.04,North,351,29.0,34.0,83,0.00,,,0.00,Weather View 32 v70,2013-07-01 08:17:00,
2013-06-30 22:22:00,71.5,65.7,30.04,NNW,338,24.0,34.0,82,0.00,,,0.00,Weather View 32 v70,2013-07-01 08:22:00,
2013-06-30 22:27:00,71.5,65.7,30.04,NW,325,21.0,34.0,82,0.00,,,0.00,Weather View 32 v70,2013-07-01 08:27:00,
2013-06-30 22:32:00,71.4,66.3,30.04,NNW,336,24.0,34.0,84,0.00,,,0.00,Weather View 32 v70,2013-07-01 08:32:00,
2013-06-30 22:37:00,71.4,66.3,30.02,NNW,347,30.0,34.0,84,0.00,,,0.00,Weather View 32 v70,2013-07-01 08:37:00,
2013-06-30 22:42:00,71.5,66.0,30.02,NNE,12,20.0,35.0,83,0.00,,,0.00,Weather View 32 v70,2013-07-01 08:42:00,
2013-06-30 22:47:00,71.4,66.3,30.03,North,354,17.0,35.0,84,0.00,,,0.00,Weather View 32 v70,2013-07-01 08:47:00,
2013-06-30 22:52:00,71.2,66.1,30.02,North,10,13.0,35.0,84,0.00,,,0.00,Weather View 32 v70,2013-07-01 08:52:00,
2013-06-30 22:57:00,71.2,66.4,30.03,North,10,13.0,35.0,85,0.00,,,0.00,Weather View 32 v70,2013-07-01 08:57:00,
2013-06-30 23:02:00,71.3,65.8,30.02,NNE,20,21.0,35.0,83,0.00,,,0.00,Weather View 32 v70,2013-07-01 09:02:00,
2013-06-30 23:07:00,71.3,65.8,30.03,North,2,22.0,35.0,83,0.00,,,0.00,Weather View 32 v70,2013-07-01 09:07:00,
2013-06-30 23:12:00,71.3,65.8,30.02,North,1,23.0,35.0,83,0.00,,,0.00,Weather View 32 v70,2013-07-01 09:12:00,
2013-06-30 23:17:00,71.3,66.2,30.03,NNW,343,28.0,35.0,84,0.00,,,0.00,Weather View 32 v70,2013-07-01 09:17:00,
2013-06-30 23:22:00,71.2,66.1,30.02,North,359,26.0,35.0,84,0.00,,,0.00,Weather View 32 v70,2013-07-01 09:22:00,
2013-06-30 23:27:00,71.2,66.1,30.03,NNW,343,24.0,35.0,84,0.00,,,0.00,Weather View 32 v70,2013-07-01 09:27:00,
2013-06-30 23:32:00,71.3,65.8,30.02,North,353,25.0,35.0,83,0.00,,,0.00,Weather View 32 v70,2013-07-01 09:32:00,
2013-06-30 23:37:00,71.3,65.8,30.03,NNW,348,16.0,35.0,83,0.00,,,0.00,Weather View 32 v70,2013-07-01 09:37:00,
2013-06-30 23:42:00,71.3,65.5,30.02,NNW,347,27.0,34.0,82,0.00,,,0.00,Weather View 32 v70,2013-07-01 09:42:00,
2013-06-30 23:47:00,71.5,65.3,30.02,NNW,335,31.0,34.0,81,0.00,,,0.00,Weather View 32 v70,2013-07-01 09:47:00,
2013-06-30 23:52:00,71.4,65.2,30.03,NW,325,24.0,34.0,81,0.00,,,0.00,Weather View 32 v70,2013-07-01 09:52:00,
2013-06-30 23:57:00,71.6,65.1,30.02,North,351,26.0,34.0,80,0.00,,,0.00,Weather View 32 v70,2013-07-01 09:57:00,